When you browse on this site, cookies collect data to enhance your experience and personalize the content and advertising you see.
Visit our Privacy Policy to learn more. By continuing to use the site, you agree to this use of cookies and data.

Hourly Weather Kin-Grust

Today, 7 July, Tuesday

Time Temperature Precipitation Wind Pressure Humidity
00:00 +20°C° 0 mm 2 mps 737 mmHg 87%
01:00 +20°C° 0 mm 2 mps 737 mmHg 89%
02:00 +20°C° 0 mm 2 mps 737 mmHg 91%
03:00 +20°C° 0 mm 2 mps 737 mmHg 94%
04:00 +20°C° 0.1 mm 2 mps 736 mmHg 94%
05:00 +21°C° 0.1 mm 2 mps 736 mmHg 94%
06:00 +21°C° 0.1 mm 2 mps 736 mmHg 93%
07:00 +24°C° 0 mm 2 mps 736 mmHg 90%
08:00 +25°C° 0 mm 3 mps 736 mmHg 86%
09:00 +27°C° 0 mm 3 mps 736 mmHg 81%
10:00 +28°C° 0.2 mm 3 mps 736 mmHg 77%
11:00 +29°C° 0.2 mm 3 mps 736 mmHg 73%
12:00 +30°C° 0.2 mm 3 mps 736 mmHg 69%
13:00 +32°C° 0.2 mm 4 mps 736 mmHg 69%
14:00 +32°C° 0.2 mm 4 mps 735 mmHg 69%
15:00 +32°C° 0.2 mm 4 mps 735 mmHg 68%
16:00 +32°C° 0.2 mm 4 mps 735 mmHg 70%
17:00 +32°C° 0.2 mm 4 mps 734 mmHg 72%
18:00 +32°C° 0.2 mm 4 mps 734 mmHg 73%
19:00 +29°C° 0 mm 4 mps 734 mmHg 73%
20:00 +27°C° 0 mm 4 mps 734 mmHg 73%
21:00 +26°C° 0 mm 4 mps 733 mmHg 73%
22:00 +25°C° 0 mm 4 mps 733 mmHg 71%
23:00 +23°C° 0 mm 4 mps 733 mmHg 70%

Tomorrow, 8 July, Wednesday

Time Temperature Precipitation Wind Pressure Humidity
00:00 +23°C° 0 mm 4 mps 733 mmHg 68%
01:00 +23°C° 0 mm 4 mps 733 mmHg 67%
02:00 +22°C° 0 mm 4 mps 733 mmHg 66%
03:00 +22°C° 0 mm 4 mps 733 mmHg 64%
04:00 +22°C° 0 mm 4 mps 732 mmHg 68%
05:00 +22°C° 0 mm 3 mps 732 mmHg 71%
06:00 +21°C° 0 mm 3 mps 732 mmHg 75%
07:00 +23°C° 0 mm 2 mps 732 mmHg 74%
08:00 +24°C° 0 mm 2 mps 732 mmHg 74%
09:00 +25°C° 0 mm 2 mps 732 mmHg 73%
10:00 +26°C° 0 mm 3 mps 732 mmHg 71%
11:00 +27°C° 0 mm 3 mps 733 mmHg 68%
12:00 +28°C° 0 mm 4 mps 733 mmHg 65%
13:00 +28°C° 0.1 mm 3 mps 733 mmHg 68%
14:00 +28°C° 0.1 mm 3 mps 733 mmHg 71%
15:00 +27°C° 0.1 mm 3 mps 733 mmHg 74%
16:00 +26°C° 1 mm 3 mps 733 mmHg 78%
17:00 +26°C° 1 mm 3 mps 734 mmHg 82%
18:00 +25°C° 1 mm 3 mps 734 mmHg 85%
19:00 +22°C° 0.6 mm 4 mps 734 mmHg 88%
20:00 +21°C° 0.6 mm 4 mps 734 mmHg 91%
21:00 +20°C° 0.6 mm 4 mps 735 mmHg 94%
22:00 +20°C° 0.4 mm 4 mps 735 mmHg 94%
23:00 +19°C° 0.4 mm 4 mps 735 mmHg 95%

Day after tomorrow, 9 July, Thursday

Time Temperature Precipitation Wind Pressure Humidity
00:00 +19°C° 0.4 mm 4 mps 735 mmHg 96%
01:00 +18°C° 1 mm 4 mps 735 mmHg 96%
02:00 +16°C° 1 mm 5 mps 736 mmHg 96%
03:00 +15°C° 1 mm 5 mps 736 mmHg 96%
04:00 +15°C° 0.8 mm 5 mps 736 mmHg 95%
05:00 +15°C° 0.8 mm 5 mps 736 mmHg 95%
06:00 +14°C° 0.8 mm 5 mps 736 mmHg 94%
07:00 +14°C° 0.2 mm 5 mps 736 mmHg 94%
08:00 +15°C° 0.2 mm 5 mps 736 mmHg 93%
09:00 +15°C° 0.2 mm 5 mps 737 mmHg 92%
10:00 +16°C° 0.1 mm 5 mps 737 mmHg 87%
11:00 +17°C° 0.1 mm 5 mps 738 mmHg 81%
12:00 +20°C° 0.1 mm 6 mps 738 mmHg 76%
13:00 +20°C° 0 mm 5 mps 738 mmHg 73%
14:00 +21°C° 0 mm 5 mps 739 mmHg 70%
15:00 +22°C° 0 mm 5 mps 739 mmHg 67%
16:00 +22°C° 0 mm 4 mps 739 mmHg 70%
17:00 +21°C° 0 mm 4 mps 739 mmHg 72%
18:00 +21°C° 0 mm 4 mps 740 mmHg 74%
19:00 +20°C° 0 mm 3 mps 740 mmHg 77%
20:00 +18°C° 0 mm 3 mps 740 mmHg 81%
21:00 +17°C° 0 mm 3 mps 741 mmHg 84%
22:00 +16°C° 0 mm 3 mps 741 mmHg 85%
23:00 +14°C° 0 mm 3 mps 741 mmHg 87%

10 July, Friday

Time Temperature Precipitation Wind Pressure Humidity
00:00 +13°C° 0 mm 3 mps 741 mmHg 88%
01:00 +13°C° 0 mm 3 mps 742 mmHg 89%
02:00 +12°C° 0 mm 3 mps 742 mmHg 90%
03:00 +12°C° 0 mm 3 mps 742 mmHg 91%
04:00 +12°C° 0 mm 3 mps 742 mmHg 91%
05:00 +13°C° 0 mm 3 mps 743 mmHg 90%
06:00 +13°C° 0 mm 3 mps 743 mmHg 90%
07:00 +16°C° 0 mm 3 mps 743 mmHg 85%
08:00 +17°C° 0 mm 3 mps 744 mmHg 80%
09:00 +19°C° 0 mm 3 mps 744 mmHg 75%
10:00 +19°C° 0 mm 3 mps 744 mmHg 71%
11:00 +20°C° 0 mm 3 mps 744 mmHg 67%
12:00 +21°C° 0 mm 3 mps 744 mmHg 63%
13:00 +22°C° 0 mm 3 mps 745 mmHg 62%
14:00 +22°C° 0 mm 3 mps 745 mmHg 61%
15:00 +22°C° 0 mm 3 mps 745 mmHg 59%
16:00 +22°C° 0 mm 3 mps 745 mmHg 62%
17:00 +23°C° 0 mm 2 mps 745 mmHg 65%
18:00 +21°C° 0 mm 2 mps 745 mmHg 68%
19:00 +20°C° 0 mm 2 mps 745 mmHg 71%
20:00 +18°C° 0 mm 2 mps 745 mmHg 73%
21:00 +16°C° 0 mm 1 mps 745 mmHg 76%
22:00 +16°C° 0 mm 1 mps 746 mmHg 76%
23:00 +15°C° 0 mm 1 mps 746 mmHg 77%

11 July, Saturday

Time Temperature Precipitation Wind Pressure Humidity
00:00 +15°C° 0 mm 1 mps 746 mmHg 77%
01:00 +14°C° 0 mm 1 mps 746 mmHg 78%
02:00 +14°C° 0 mm 1 mps 746 mmHg 79%
03:00 +14°C° 0 mm 1 mps 746 mmHg 81%
04:00 +13°C° 0 mm 0 mps 746 mmHg 81%
05:00 +14°C° 0 mm 0 mps 746 mmHg 81%
06:00 +15°C° 0 mm 0 mps 747 mmHg 81%
07:00 +16°C° 0 mm 0 mps 747 mmHg 76%
08:00 +20°C° 0 mm 1 mps 747 mmHg 72%
09:00 +21°C° 0 mm 1 mps 747 mmHg 67%
10:00 +22°C° 0 mm 1 mps 747 mmHg 63%
11:00 +23°C° 0 mm 2 mps 747 mmHg 60%
12:00 +24°C° 0 mm 2 mps 746 mmHg 56%
13:00 +24°C° 0 mm 2 mps 746 mmHg 55%
14:00 +24°C° 0 mm 2 mps 746 mmHg 54%
15:00 +25°C° 0 mm 2 mps 746 mmHg 52%
16:00 +25°C° 0 mm 2 mps 746 mmHg 56%
17:00 +25°C° 0 mm 1 mps 745 mmHg 59%
18:00 +24°C° 0 mm 1 mps 745 mmHg 63%
19:00 +23°C° 0 mm 1 mps 745 mmHg 65%
20:00 +21°C° 0 mm 1 mps 745 mmHg 68%
21:00 +19°C° 0 mm 1 mps 745 mmHg 70%
22:00 +19°C° 0 mm 1 mps 745 mmHg 70%
23:00 +18°C° 0 mm 1 mps 745 mmHg 71%

12 July, Sunday

Time Temperature Precipitation Wind Pressure Humidity
00:00 +17°C° 0 mm 2 mps 745 mmHg 71%
01:00 +16°C° 0 mm 2 mps 744 mmHg 72%
02:00 +16°C° 0 mm 2 mps 744 mmHg 73%
03:00 +16°C° 0 mm 2 mps 744 mmHg 74%
04:00 +16°C° 0 mm 2 mps 744 mmHg 75%
05:00 +16°C° 0 mm 1 mps 744 mmHg 77%
06:00 +18°C° 0 mm 1 mps 744 mmHg 79%
07:00 +19°C° 0 mm 1 mps 744 mmHg 75%
08:00 +21°C° 0 mm 1 mps 744 mmHg 71%
09:00 +23°C° 0 mm 1 mps 744 mmHg 67%
10:00 +24°C° 0 mm 1 mps 744 mmHg 64%
11:00 +25°C° 0 mm 1 mps 744 mmHg 61%
12:00 +26°C° 0 mm 1 mps 743 mmHg 58%
13:00 +26°C° 0 mm 1 mps 743 mmHg 57%
14:00 +26°C° 0 mm 1 mps 743 mmHg 55%
15:00 +27°C° 0 mm 1 mps 742 mmHg 53%
16:00 +27°C° 0 mm 1 mps 742 mmHg 55%
17:00 +27°C° 0 mm 1 mps 742 mmHg 57%
18:00 +25°C° 0 mm 0 mps 742 mmHg 58%
19:00 +23°C° 0 mm 0 mps 741 mmHg 62%
20:00 +21°C° 0 mm 0 mps 741 mmHg 66%
21:00 +19°C° 0 mm 0 mps 741 mmHg 71%
22:00 +21°C° 0 mm 1 mps 741 mmHg 72%
23:00 +20°C° 0 mm 1 mps 741 mmHg 74%
Show more